Time,TemperatureF,DewpointF,PressureIn,WindDirection,WindDirectionDegrees,WindSpeedMPH,WindSpeedGustMPH,Humidity,HourlyPrecipIn,Conditions,Clouds,dailyrainin,SolarRadiationWatts/m^2,SoftwareType,DateUTC
2013-05-08 00:00:00,57.6,31.5,30.04,SSE,155,6.0,0.0,37,0.00,,,-99.99,0,WeatherHawk,2013-05-08 07:00:00,
2013-05-08 00:06:00,57.5,32.1,30.04,ESE,112,4.0,0.0,38,0.00,,,0.00,1,WeatherHawk,2013-05-08 07:06:00,
2013-05-08 00:11:00,57.6,31.5,30.03,SE,132,5.0,0.0,37,0.00,,,0.00,0,WeatherHawk,2013-05-08 07:11:00,
2013-05-08 00:16:00,57.7,31.6,30.04,SE,138,6.0,0.0,37,0.00,,,0.00,0,WeatherHawk,2013-05-08 07:16:00,
2013-05-08 00:21:00,57.1,31.7,30.04,SE,133,4.0,0.0,38,0.00,,,0.00,0,WeatherHawk,2013-05-08 07:21:00,
2013-05-08 00:26:00,57.8,31.7,30.04,SE,137,5.0,0.0,37,0.00,,,0.00,1,WeatherHawk,2013-05-08 07:26:00,
2013-05-08 00:31:00,57.9,31.8,30.03,ESE,116,6.0,0.0,37,0.00,,,0.00,0,WeatherHawk,2013-05-08 07:31:00,
2013-05-08 00:37:00,57.0,31.7,30.04,SE,131,4.0,0.0,38,0.00,,,0.00,0,WeatherHawk,2013-05-08 07:37:00,
2013-05-08 00:42:00,56.8,31.4,30.04,SSE,168,0.0,0.0,38,0.00,,,0.00,0,WeatherHawk,2013-05-08 07:42:00,
2013-05-08 00:47:00,55.9,32.5,30.04,South,189,0.0,0.0,41,0.00,,,0.00,0,WeatherHawk,2013-05-08 07:47:00,
2013-05-08 00:52:00,56.0,33.8,30.04,SW,230,0.0,0.0,43,0.00,,,0.00,0,WeatherHawk,2013-05-08 07:52:00,
2013-05-08 00:57:00,54.2,33.3,30.05,SSW,198,0.0,0.0,45,0.00,,,0.00,0,WeatherHawk,2013-05-08 07:57:00,
2013-05-08 01:03:00,55.8,35.3,30.04,SSW,198,0.0,0.0,46,0.00,,,0.00,0,WeatherHawk,2013-05-08 08:03:00,
2013-05-08 01:08:00,56.5,34.9,30.04,ESE,108,0.0,0.0,44,0.00,,,0.00,1,WeatherHawk,2013-05-08 08:08:00,
2013-05-08 01:13:00,55.5,33.4,30.04,ESE,108,0.0,0.0,43,0.00,,,0.00,0,WeatherHawk,2013-05-08 08:13:00,
2013-05-08 01:18:00,56.1,35.6,30.05,SSE,161,0.0,0.0,46,0.00,,,0.00,0,WeatherHawk,2013-05-08 08:18:00,
2013-05-08 01:23:00,55.8,35.9,30.04,NNE,31,0.0,0.0,47,0.00,,,0.00,1,WeatherHawk,2013-05-08 08:23:00,
2013-05-08 01:28:00,54.5,34.2,30.05,SSE,167,0.0,0.0,46,0.00,,,0.00,1,WeatherHawk,2013-05-08 08:28:00,
2013-05-08 01:33:00,55.7,35.3,30.05,SSE,150,0.0,0.0,46,0.00,,,0.00,0,WeatherHawk,2013-05-08 08:33:00,
2013-05-08 01:38:00,55.6,35.1,30.05,NNE,23,0.0,0.0,46,0.00,,,0.00,0,WeatherHawk,2013-05-08 08:38:00,
2013-05-08 01:43:00,55.0,35.2,30.05,NNE,23,0.0,0.0,47,0.00,,,0.00,0,WeatherHawk,2013-05-08 08:43:00,
2013-05-08 01:48:00,55.4,35.0,30.06,ESE,106,0.0,0.0,46,0.00,,,0.00,0,WeatherHawk,2013-05-08 08:48:00,
2013-05-08 01:53:00,56.4,35.3,30.06,ESE,106,0.0,0.0,45,0.00,,,0.00,0,WeatherHawk,2013-05-08 08:53:00,
2013-05-08 01:58:00,55.0,35.1,30.05,NNW,336,0.0,0.0,47,0.00,,,0.00,1,WeatherHawk,2013-05-08 08:58:00,
2013-05-08 02:03:00,54.0,36.8,30.05,NE,49,2.0,0.0,52,0.00,,,0.00,0,WeatherHawk,2013-05-08 09:03:00,
2013-05-08 02:08:00,53.4,37.7,30.05,NE,49,0.0,0.0,55,0.00,,,0.00,0,WeatherHawk,2013-05-08 09:08:00,
2013-05-08 02:13:00,55.3,36.0,30.05,ESE,106,0.0,0.0,48,0.00,,,0.00,0,WeatherHawk,2013-05-08 09:13:00,
2013-05-08 02:19:00,53.5,35.3,30.06,ESE,106,0.0,0.0,50,0.00,,,0.00,0,WeatherHawk,2013-05-08 09:19:00,
2013-05-08 02:24:00,53.8,34.6,30.05,NNW,344,0.0,0.0,48,0.00,,,0.00,0,WeatherHawk,2013-05-08 09:24:00,
2013-05-08 02:29:00,54.2,35.4,30.06,NNW,344,0.0,0.0,49,0.00,,,0.00,0,WeatherHawk,2013-05-08 09:29:00,
2013-05-08 02:34:00,53.8,35.6,30.06,SE,143,0.0,0.0,50,0.00,,,0.00,0,WeatherHawk,2013-05-08 09:34:00,
2013-05-08 02:39:00,51.8,34.8,30.06,SE,143,0.0,0.0,52,0.00,,,0.00,0,WeatherHawk,2013-05-08 09:39:00,
2013-05-08 02:45:00,51.7,35.1,30.06,SE,143,0.0,-999.0,53,0.00,,,0.00,1,WeatherHawk,2013-05-08 09:45:00,
2013-05-08 02:50:00,51.8,36.6,30.06,SE,143,0.0,0.0,56,0.00,,,0.00,0,WeatherHawk,2013-05-08 09:50:00,
2013-05-08 02:55:00,53.0,37.3,30.06,SE,143,0.0,-999.0,55,0.00,,,0.00,0,WeatherHawk,2013-05-08 09:55:00,
2013-05-08 03:00:00,52.5,37.3,30.06,SE,143,0.0,0.0,56,0.00,,,0.00,0,WeatherHawk,2013-05-08 10:00:00,
2013-05-08 03:05:00,53.1,36.9,30.06,SE,143,2.0,-999.0,54,0.00,,,0.00,0,WeatherHawk,2013-05-08 10:05:00,
2013-05-08 03:10:00,53.6,37.4,30.06,South,189,0.0,0.0,54,0.00,,,0.00,1,WeatherHawk,2013-05-08 10:10:00,
2013-05-08 03:15:00,53.2,36.5,30.06,South,172,0.0,0.0,53,0.00,,,0.00,0,WeatherHawk,2013-05-08 10:15:00,
2013-05-08 03:20:00,53.2,36.5,30.06,South,172,0.0,0.0,53,0.00,,,0.00,0,WeatherHawk,2013-05-08 10:20:00,
2013-05-08 03:25:00,52.3,35.7,30.06,South,172,0.0,-999.0,53,0.00,,,0.00,0,WeatherHawk,2013-05-08 10:25:00,
2013-05-08 03:30:00,52.2,36.5,30.06,South,172,0.0,0.0,55,0.00,,,0.00,0,WeatherHawk,2013-05-08 10:30:00,
2013-05-08 03:35:00,51.7,36.5,30.06,South,172,0.0,0.0,56,0.00,,,0.00,0,WeatherHawk,2013-05-08 10:35:00,
2013-05-08 03:40:00,51.0,36.7,30.06,South,172,0.0,0.0,58,0.00,,,0.00,0,WeatherHawk,2013-05-08 10:40:00,
2013-05-08 03:45:00,51.6,36.9,30.06,WSW,242,0.0,-999.0,57,0.00,,,0.00,0,WeatherHawk,2013-05-08 10:45:00,
2013-05-08 03:50:00,51.2,36.5,30.07,WSW,247,0.0,0.0,57,0.00,,,0.00,0,WeatherHawk,2013-05-08 10:50:00,
2013-05-08 03:55:00,51.7,37.4,30.07,WSW,247,0.0,-999.0,58,0.00,,,0.00,0,WeatherHawk,2013-05-08 10:55:00,
2013-05-08 04:00:00,51.1,37.7,30.07,South,173,0.0,0.0,60,0.00,,,0.00,1,WeatherHawk,2013-05-08 11:00:00,
2013-05-08 04:05:00,50.5,37.1,30.07,West,270,0.0,-999.0,60,0.00,,,0.00,1,WeatherHawk,2013-05-08 11:05:00,
2013-05-08 04:10:00,50.5,38.0,30.07,South,184,0.0,-999.0,62,0.00,,,0.00,0,WeatherHawk,2013-05-08 11:10:00,
2013-05-08 04:15:00,51.2,38.2,30.07,SSW,202,1.0,0.0,61,0.00,,,0.00,0,WeatherHawk,2013-05-08 11:15:00,
2013-05-08 04:20:00,51.0,38.1,30.07,SSE,168,0.0,0.0,61,0.00,,,0.00,0,WeatherHawk,2013-05-08 11:20:00,
2013-05-08 04:25:00,51.7,39.5,30.07,SSE,168,0.0,0.0,63,0.00,,,0.00,0,WeatherHawk,2013-05-08 11:25:00,
2013-05-08 04:30:00,50.6,38.8,30.07,SSE,168,0.0,0.0,64,0.00,,,0.00,0,WeatherHawk,2013-05-08 11:30:00,
2013-05-08 04:35:00,50.6,38.9,30.07,SSE,168,0.0,-999.0,64,0.00,,,0.00,1,WeatherHawk,2013-05-08 11:35:00,
2013-05-08 04:40:00,51.3,38.7,30.07,SSE,168,0.0,0.0,62,0.00,,,0.00,0,WeatherHawk,2013-05-08 11:40:00,
2013-05-08 04:45:00,51.4,38.4,30.07,SSE,168,0.0,-999.0,61,0.00,,,0.00,0,WeatherHawk,2013-05-08 11:45:00,
2013-05-08 04:50:00,50.9,38.7,30.08,SSE,168,0.0,0.0,63,0.00,,,0.00,0,WeatherHawk,2013-05-08 11:50:00,
2013-05-08 04:55:00,49.7,38.4,30.07,SSE,168,0.0,-999.0,65,0.00,,,0.00,0,WeatherHawk,2013-05-08 11:55:00,
2013-05-08 05:00:00,50.9,38.8,30.07,SSE,168,0.0,0.0,63,0.00,,,0.00,0,WeatherHawk,2013-05-08 12:00:00,
2013-05-08 05:05:00,50.0,37.9,30.08,SSE,168,0.0,-999.0,63,0.00,,,0.00,0,WeatherHawk,2013-05-08 12:05:00,
2013-05-08 05:10:00,49.8,38.1,30.08,North,6,0.0,0.0,64,0.00,,,0.00,0,WeatherHawk,2013-05-08 12:10:00,
2013-05-08 05:15:00,50.0,39.0,30.08,North,6,0.0,0.0,66,0.00,,,0.00,0,WeatherHawk,2013-05-08 12:15:00,
2013-05-08 05:20:00,50.2,38.5,30.08,ESE,105,0.0,0.0,64,0.00,,,0.00,0,WeatherHawk,2013-05-08 12:20:00,
2013-05-08 05:25:00,49.6,38.3,30.08,ESE,105,0.0,0.0,65,0.00,,,0.00,0,WeatherHawk,2013-05-08 12:25:00,
2013-05-08 05:30:00,48.0,38.3,30.08,NNW,332,0.0,0.0,69,0.00,,,0.00,0,WeatherHawk,2013-05-08 12:30:00,
2013-05-08 05:35:00,49.0,40.7,30.09,NNW,332,0.0,-999.0,73,0.00,,,0.00,0,WeatherHawk,2013-05-08 12:35:00,
2013-05-08 05:40:00,48.9,39.2,30.09,South,172,0.0,0.0,69,0.00,,,0.00,3,WeatherHawk,2013-05-08 12:40:00,
2013-05-08 05:45:00,48.2,38.9,30.09,WSW,251,0.0,0.0,70,0.00,,,0.00,3,WeatherHawk,2013-05-08 12:45:00,
2013-05-08 05:50:00,49.3,39.5,30.09,WSW,252,0.0,0.0,69,0.00,,,0.00,6,WeatherHawk,2013-05-08 12:50:00,
2013-05-08 05:55:00,47.1,38.2,30.09,WSW,252,0.0,-999.0,71,0.00,,,0.00,8,WeatherHawk,2013-05-08 12:55:00,
2013-05-08 06:00:00,48.3,40.4,30.09,WSW,252,0.0,0.0,74,0.00,,,0.00,10,WeatherHawk,2013-05-08 13:00:00,
2013-05-08 06:05:00,48.2,40.7,30.09,WSW,252,0.0,-999.0,75,0.00,,,0.00,12,WeatherHawk,2013-05-08 13:05:00,
2013-05-08 06:10:00,47.9,40.0,30.09,NE,50,0.0,0.0,74,0.00,,,0.00,14,WeatherHawk,2013-05-08 13:10:00,
2013-05-08 06:15:00,48.7,39.7,30.10,ESE,120,0.0,-999.0,71,0.00,,,0.00,17,WeatherHawk,2013-05-08 13:15:00,
2013-05-08 06:20:00,48.3,39.7,30.09,ESE,120,0.0,0.0,72,0.00,,,0.00,19,WeatherHawk,2013-05-08 13:20:00,
2013-05-08 06:25:00,48.4,40.9,30.10,ESE,120,0.0,0.0,75,0.00,,,0.00,20,WeatherHawk,2013-05-08 13:25:00,
2013-05-08 06:30:00,48.6,41.1,30.10,ESE,120,0.0,0.0,75,0.00,,,0.00,22,WeatherHawk,2013-05-08 13:30:00,
2013-05-08 06:35:00,48.5,39.5,30.10,ESE,120,0.0,0.0,71,0.00,,,0.00,24,WeatherHawk,2013-05-08 13:35:00,
2013-05-08 06:40:00,47.7,38.4,30.10,South,174,0.0,0.0,70,0.00,,,0.00,25,WeatherHawk,2013-05-08 13:40:00,
2013-05-08 06:45:00,48.2,39.6,30.10,South,174,0.0,-999.0,72,0.00,,,0.00,27,WeatherHawk,2013-05-08 13:45:00,
2013-05-08 06:50:00,48.6,38.5,30.10,NE,56,0.0,0.0,68,0.00,,,0.00,29,WeatherHawk,2013-05-08 13:50:00,
2013-05-08 06:55:00,48.5,38.8,30.10,SSE,152,0.0,0.0,69,0.00,,,0.00,31,WeatherHawk,2013-05-08 13:55:00,
2013-05-08 07:00:00,49.0,39.3,30.10,SSE,156,0.0,0.0,69,0.00,,,0.00,81,WeatherHawk,2013-05-08 14:00:00,
2013-05-08 07:05:00,49.6,38.8,30.10,ENE,71,0.0,0.0,66,0.00,,,0.00,117,WeatherHawk,2013-05-08 14:05:00,
2013-05-08 07:10:00,51.1,36.8,30.10,NE,36,0.0,0.0,58,0.00,,,0.00,147,WeatherHawk,2013-05-08 14:10:00,
2013-05-08 07:15:00,50.9,33.9,30.11,NE,47,0.0,0.0,52,0.00,,,0.00,160,WeatherHawk,2013-05-08 14:15:00,
2013-05-08 07:20:00,51.6,34.6,30.10,NW,317,0.0,0.0,52,0.00,,,0.00,171,WeatherHawk,2013-05-08 14:20:00,
2013-05-08 07:25:00,53.4,34.7,30.11,NW,317,0.0,-999.0,49,0.00,,,0.00,179,WeatherHawk,2013-05-08 14:25:00,
2013-05-08 07:30:00,52.5,32.9,30.11,NW,317,0.0,0.0,47,0.00,,,0.00,195,WeatherHawk,2013-05-08 14:30:00,
2013-05-08 07:35:00,55.3,34.4,30.11,NW,317,0.0,0.0,45,0.00,,,0.00,210,WeatherHawk,2013-05-08 14:35:00,
2013-05-08 07:40:00,56.0,35.0,30.11,NW,317,0.0,0.0,45,0.00,,,0.00,222,WeatherHawk,2013-05-08 14:40:00,
2013-05-08 07:45:00,54.9,31.7,30.11,SE,135,0.0,0.0,41,0.00,,,0.00,234,WeatherHawk,2013-05-08 14:45:00,
2013-05-08 07:50:00,55.4,30.2,30.10,SE,135,0.0,-999.0,38,0.00,,,0.00,247,WeatherHawk,2013-05-08 14:50:00,
2013-05-08 07:55:00,53.6,29.9,30.11,SE,135,0.0,0.0,40,0.00,,,0.00,259,WeatherHawk,2013-05-08 14:55:00,
2013-05-08 08:00:00,53.0,30.0,30.11,NW,306,0.0,0.0,41,0.00,,,0.00,273,WeatherHawk,2013-05-08 15:00:00,
2013-05-08 08:05:00,53.4,30.9,30.10,West,271,0.0,0.0,42,0.00,,,0.00,287,WeatherHawk,2013-05-08 15:05:00,
2013-05-08 08:10:00,64.3,38.8,30.11,NE,41,0.0,0.0,39,0.00,,,0.00,298,WeatherHawk,2013-05-08 15:10:00,
2013-05-08 08:15:00,55.6,29.1,30.10,NE,55,0.0,0.0,36,0.00,,,0.00,310,WeatherHawk,2013-05-08 15:15:00,
2013-05-08 08:20:00,55.2,30.0,30.11,NW,308,0.0,0.0,38,0.00,,,0.00,324,WeatherHawk,2013-05-08 15:20:00,
2013-05-08 08:25:00,55.9,30.0,30.11,West,270,0.0,0.0,37,0.00,,,0.00,337,WeatherHawk,2013-05-08 15:25:00,
2013-05-08 08:30:00,58.1,29.1,30.10,WNW,301,0.0,0.0,33,0.00,,,0.00,349,WeatherHawk,2013-05-08 15:30:00,
2013-05-08 08:35:00,58.3,29.4,30.10,WNW,301,0.0,0.0,33,0.00,,,0.00,361,WeatherHawk,2013-05-08 15:35:00,
2013-05-08 08:40:00,60.1,30.9,30.10,NE,36,0.0,0.0,33,0.00,,,0.00,376,WeatherHawk,2013-05-08 15:40:00,
2013-05-08 08:45:00,58.7,27.4,30.09,NNE,28,0.0,0.0,30,0.00,,,0.00,387,WeatherHawk,2013-05-08 15:45:00,
2013-05-08 08:50:00,59.3,27.9,30.10,NNW,336,3.0,0.0,30,0.00,,,0.00,401,WeatherHawk,2013-05-08 15:50:00,
2013-05-08 08:55:00,58.1,26.8,30.10,West,268,0.0,-999.0,30,0.00,,,0.00,414,WeatherHawk,2013-05-08 15:55:00,
2013-05-08 09:00:00,58.4,26.3,30.10,NNW,327,0.0,-999.0,29,0.00,,,0.00,425,WeatherHawk,2013-05-08 16:00:00,
2013-05-08 09:05:00,59.2,24.3,30.10,WNW,296,3.0,0.0,26,0.00,,,0.00,437,WeatherHawk,2013-05-08 16:05:00,
2013-05-08 09:10:00,60.2,26.1,30.08,West,270,0.0,0.0,27,0.00,,,0.00,450,WeatherHawk,2013-05-08 16:10:00,
2013-05-08 09:15:00,61.4,26.2,30.09,North,349,4.0,0.0,26,0.00,,,0.00,461,WeatherHawk,2013-05-08 16:15:00,
2013-05-08 09:20:00,63.7,29.1,30.09,NNW,342,1.0,0.0,27,0.00,,,0.00,475,WeatherHawk,2013-05-08 16:20:00,
2013-05-08 09:25:00,62.2,25.9,30.09,NNE,22,3.0,0.0,25,0.00,,,0.00,484,WeatherHawk,2013-05-08 16:25:00,
2013-05-08 09:30:00,62.9,26.5,30.08,NE,35,4.0,0.0,25,0.00,,,0.00,497,WeatherHawk,2013-05-08 16:30:00,
2013-05-08 09:35:00,63.9,26.4,30.09,North,9,1.0,-999.0,24,0.00,,,0.00,507,WeatherHawk,2013-05-08 16:35:00,
2013-05-08 09:40:00,65.2,27.5,30.08,NNE,18,4.0,0.0,24,0.00,,,0.00,518,WeatherHawk,2013-05-08 16:40:00,
2013-05-08 09:45:00,63.2,21.5,30.09,NE,36,4.0,-999.0,20,0.00,,,0.00,530,WeatherHawk,2013-05-08 16:45:00,
2013-05-08 09:50:00,65.3,25.4,30.08,NNE,14,3.0,0.0,22,0.00,,,0.00,540,WeatherHawk,2013-05-08 16:50:00,
2013-05-08 09:55:00,63.0,22.4,30.08,NE,49,5.0,0.0,21,0.00,,,0.00,552,WeatherHawk,2013-05-08 16:55:00,
2013-05-08 10:00:00,64.0,23.3,30.08,NNE,29,6.0,0.0,21,0.00,,,0.00,560,WeatherHawk,2013-05-08 17:00:00,
2013-05-08 10:05:00,66.0,25.0,30.08,NW,321,3.0,0.0,21,0.00,,,0.00,571,WeatherHawk,2013-05-08 17:05:00,
2013-05-08 10:10:00,65.4,23.3,30.08,North,351,5.0,0.0,20,0.00,,,0.00,582,WeatherHawk,2013-05-08 17:10:00,
2013-05-08 10:15:00,66.0,22.5,30.08,NNE,29,6.0,0.0,19,0.00,,,0.00,591,WeatherHawk,2013-05-08 17:15:00,
2013-05-08 10:20:00,66.0,21.3,30.09,NE,36,4.0,0.0,18,0.00,,,0.00,599,WeatherHawk,2013-05-08 17:20:00,
2013-05-08 10:25:00,67.8,21.4,30.08,North,0,4.0,0.0,17,0.00,,,0.00,608,WeatherHawk,2013-05-08 17:25:00,
2013-05-08 10:30:00,67.3,21.0,30.09,North,1,3.0,0.0,17,0.00,,,0.00,615,WeatherHawk,2013-05-08 17:30:00,
2013-05-08 10:35:00,68.2,21.8,30.08,NNW,342,3.0,0.0,17,0.00,,,0.00,626,WeatherHawk,2013-05-08 17:35:00,
2013-05-08 10:40:00,67.1,16.4,30.08,North,0,3.0,-999.0,14,0.00,,,0.00,633,WeatherHawk,2013-05-08 17:40:00,
2013-05-08 10:45:00,67.4,14.8,30.08,North,0,4.0,0.0,13,0.00,,,0.00,643,WeatherHawk,2013-05-08 17:45:00,
2013-05-08 10:50:00,67.9,16.9,30.07,NNE,21,4.0,-999.0,14,0.00,,,0.00,649,WeatherHawk,2013-05-08 17:50:00,
2013-05-08 10:55:00,69.2,18.0,30.07,NNE,27,6.0,0.0,14,0.00,,,0.00,654,WeatherHawk,2013-05-08 17:55:00,
2013-05-08 11:00:00,66.8,12.6,30.07,ENE,58,5.0,0.0,12,0.00,,,0.00,667,WeatherHawk,2013-05-08 18:00:00,
2013-05-08 11:05:00,68.9,12.2,30.08,NNE,26,5.0,0.0,11,0.00,,,0.00,674,WeatherHawk,2013-05-08 18:05:00,
2013-05-08 11:10:00,69.0,16.1,30.08,NNE,15,4.0,0.0,13,0.00,,,0.00,677,WeatherHawk,2013-05-08 18:10:00,
2013-05-08 11:15:00,71.5,14.3,30.08,NNW,329,4.0,0.0,11,0.00,,,0.00,687,WeatherHawk,2013-05-08 18:15:00,
2013-05-08 11:20:00,72.0,14.6,30.08,North,4,8.0,0.0,11,0.00,,,0.00,691,WeatherHawk,2013-05-08 18:20:00,
2013-05-08 11:25:00,69.4,5.5,30.07,NNW,342,6.0,0.0,8,0.00,,,0.00,697,WeatherHawk,2013-05-08 18:25:00,
2013-05-08 11:30:00,69.8,10.8,30.07,NNE,14,1.0,0.0,10,0.00,,,0.00,701,WeatherHawk,2013-05-08 18:30:00,
2013-05-08 11:35:00,70.2,6.1,30.07,NW,326,7.0,0.0,8,0.00,,,0.00,709,WeatherHawk,2013-05-08 18:35:00,
2013-05-08 11:40:00,71.4,4.1,30.07,North,0,6.0,-999.0,7,0.00,,,0.00,713,WeatherHawk,2013-05-08 18:40:00,
2013-05-08 11:45:00,72.1,10.2,30.07,NNW,341,6.0,0.0,9,0.00,,,0.00,720,WeatherHawk,2013-05-08 18:45:00,
2013-05-08 11:50:00,70.1,6.1,30.07,NNW,343,6.0,-999.0,8,0.00,,,0.00,723,WeatherHawk,2013-05-08 18:50:00,
2013-05-08 11:55:00,70.4,3.4,30.07,West,272,2.0,0.0,7,0.00,,,0.00,728,WeatherHawk,2013-05-08 18:55:00,
2013-05-08 12:00:00,73.2,8.4,30.07,NNW,332,5.0,0.0,8,0.00,,,0.00,732,WeatherHawk,2013-05-08 19:00:00,
2013-05-08 12:05:00,71.6,9.8,30.06,WSW,239,1.0,0.0,9,0.00,,,0.00,735,WeatherHawk,2013-05-08 19:05:00,
2013-05-08 12:10:00,71.7,4.4,30.06,WNW,291,3.0,0.0,7,0.00,,,0.00,739,WeatherHawk,2013-05-08 19:10:00,
2013-05-08 12:15:00,72.0,4.5,30.07,North,0,3.0,0.0,7,0.00,,,0.00,742,WeatherHawk,2013-05-08 19:15:00,
2013-05-08 12:20:00,72.6,8.0,30.06,North,350,3.0,0.0,8,0.00,,,0.00,742,WeatherHawk,2013-05-08 19:20:00,
2013-05-08 12:25:00,73.8,2.6,30.06,NNE,18,1.0,0.0,6,0.00,,,0.00,745,WeatherHawk,2013-05-08 19:25:00,
2013-05-08 12:30:00,72.4,1.5,30.05,NE,36,5.0,0.0,6,0.00,,,0.00,749,WeatherHawk,2013-05-08 19:30:00,
2013-05-08 12:35:00,73.6,5.8,30.05,North,11,7.0,0.0,7,0.00,,,0.00,750,WeatherHawk,2013-05-08 19:35:00,
2013-05-08 12:40:00,76.9,11.1,30.04,North,11,0.0,-999.0,8,0.00,,,0.00,754,WeatherHawk,2013-05-08 19:40:00,
2013-05-08 12:45:00,76.1,4.2,30.04,North,0,1.0,0.0,6,0.00,,,0.00,752,WeatherHawk,2013-05-08 19:45:00,
2013-05-08 12:50:00,76.5,10.9,30.04,North,351,3.0,0.0,8,0.00,,,0.00,753,WeatherHawk,2013-05-08 19:50:00,
2013-05-08 12:55:00,74.0,6.0,30.04,NNE,25,5.0,0.0,7,0.00,,,0.00,755,WeatherHawk,2013-05-08 19:55:00,
2013-05-08 13:00:00,75.7,7.3,30.04,WNW,283,6.0,0.0,7,0.00,,,0.00,756,WeatherHawk,2013-05-08 20:00:00,
2013-05-08 13:05:00,75.2,-0.4,30.03,NW,317,7.0,0.0,5,0.00,,,0.00,755,WeatherHawk,2013-05-08 20:05:00,
2013-05-08 13:10:00,74.1,-1.1,30.03,NNW,336,8.0,0.0,5,0.00,,,0.00,754,WeatherHawk,2013-05-08 20:10:00,
2013-05-08 13:15:00,76.3,4.4,30.04,NE,39,7.0,0.0,6,0.00,,,0.00,751,WeatherHawk,2013-05-08 20:15:00,
2013-05-08 13:20:00,77.5,1.3,30.04,NE,38,3.0,0.0,5,0.00,,,0.00,752,WeatherHawk,2013-05-08 20:20:00,
2013-05-08 13:25:00,76.0,4.1,30.04,NE,56,6.0,0.0,6,0.00,,,0.00,754,WeatherHawk,2013-05-08 20:25:00,
2013-05-08 13:30:00,75.1,-0.4,30.03,NNE,13,6.0,0.0,5,0.00,,,0.00,752,WeatherHawk,2013-05-08 20:30:00,
2013-05-08 13:35:00,76.4,0.5,30.03,NNE,31,3.0,0.0,5,0.00,,,0.00,748,WeatherHawk,2013-05-08 20:35:00,
2013-05-08 13:40:00,75.8,-4.6,30.03,ENE,57,5.0,0.0,4,0.00,,,0.00,748,WeatherHawk,2013-05-08 20:40:00,
2013-05-08 13:45:00,76.1,-4.4,30.03,NNW,338,9.0,0.0,4,0.00,,,0.00,743,WeatherHawk,2013-05-08 20:45:00,
2013-05-08 13:50:00,79.6,-2.0,30.03,WSW,256,0.0,0.0,4,0.00,,,0.00,742,WeatherHawk,2013-05-08 20:50:00,
2013-05-08 13:55:00,80.9,11.0,30.02,NNE,28,4.0,0.0,7,0.00,,,0.00,738,WeatherHawk,2013-05-08 20:55:00,
2013-05-08 14:00:00,78.3,9.2,30.02,NNW,328,4.0,-999.0,7,0.00,,,0.00,735,WeatherHawk,2013-05-08 21:00:00,
2013-05-08 14:05:00,82.4,-0.1,30.02,NE,44,0.0,0.0,4,0.00,,,0.00,734,WeatherHawk,2013-05-08 21:05:00,
2013-05-08 14:10:00,77.1,-3.7,30.02,NNW,347,8.0,0.0,4,0.00,,,0.00,727,WeatherHawk,2013-05-08 21:10:00,
2013-05-08 14:15:00,77.9,-3.1,30.02,WNW,283,2.0,0.0,4,0.00,,,0.00,723,WeatherHawk,2013-05-08 21:15:00,
2013-05-08 14:20:00,77.6,-3.4,30.02,NNW,348,4.0,0.0,4,0.00,,,0.00,719,WeatherHawk,2013-05-08 21:20:00,
2013-05-08 14:25:00,78.4,-2.8,30.03,NNE,16,5.0,0.0,4,0.00,,,0.00,714,WeatherHawk,2013-05-08 21:25:00,
2013-05-08 14:30:00,77.8,-3.2,30.01,WNW,283,9.0,0.0,4,0.00,,,0.00,709,WeatherHawk,2013-05-08 21:30:00,
2013-05-08 14:35:00,81.5,-0.7,30.01,NW,307,7.0,0.0,4,0.00,,,0.00,708,WeatherHawk,2013-05-08 21:35:00,
2013-05-08 14:40:00,79.5,-2.0,30.02,North,1,11.0,0.0,4,0.00,,,0.00,699,WeatherHawk,2013-05-08 21:40:00,
2013-05-08 14:45:00,80.1,-1.6,30.01,NNE,22,9.0,0.0,4,0.00,,,0.00,696,WeatherHawk,2013-05-08 21:45:00,
2013-05-08 14:50:00,80.6,3.4,30.01,North,1,5.0,0.0,5,0.00,,,0.00,689,WeatherHawk,2013-05-08 21:50:00,
2013-05-08 14:55:00,79.8,2.9,30.02,North,349,2.0,0.0,5,0.00,,,0.00,687,WeatherHawk,2013-05-08 21:55:00,
2013-05-08 15:00:00,78.4,1.9,30.01,North,4,9.0,0.0,5,0.00,,,0.00,681,WeatherHawk,2013-05-08 22:00:00,
2013-05-08 15:05:00,78.5,2.0,30.00,NW,308,6.0,0.0,5,0.00,,,0.00,674,WeatherHawk,2013-05-08 22:05:00,
2013-05-08 15:10:00,81.1,3.8,30.01,NNW,348,7.0,0.0,5,0.00,,,0.00,666,WeatherHawk,2013-05-08 22:10:00,
2013-05-08 15:15:00,81.4,4.0,30.00,North,9,9.0,0.0,5,0.00,,,0.00,660,WeatherHawk,2013-05-08 22:15:00,
2013-05-08 15:20:00,79.9,2.9,30.00,NNE,15,2.0,0.0,5,0.00,,,0.00,656,WeatherHawk,2013-05-08 22:20:00,
2013-05-08 15:25:00,82.0,4.5,30.00,NNE,24,6.0,0.0,5,0.00,,,0.00,645,WeatherHawk,2013-05-08 22:25:00,
2013-05-08 15:30:00,81.7,4.2,29.99,NNE,19,6.0,0.0,5,0.00,,,0.00,642,WeatherHawk,2013-05-08 22:30:00,
2013-05-08 15:35:00,81.7,4.2,29.99,NNE,21,8.0,0.0,5,0.00,,,0.00,633,WeatherHawk,2013-05-08 22:35:00,
2013-05-08 15:40:00,84.1,5.9,29.99,NNW,346,2.0,-999.0,5,0.00,,,0.00,624,WeatherHawk,2013-05-08 22:40:00,
2013-05-08 15:45:00,81.2,3.9,29.99,NW,323,10.0,0.0,5,0.00,,,0.00,627,WeatherHawk,2013-05-08 22:45:00,
2013-05-08 15:50:00,80.8,3.6,30.00,NW,318,10.0,-999.0,5,0.00,,,0.00,612,WeatherHawk,2013-05-08 22:50:00,
2013-05-08 15:55:00,80.3,3.3,29.99,NNW,346,8.0,0.0,5,0.00,,,0.00,588,WeatherHawk,2013-05-08 22:55:00,
2013-05-08 16:00:00,81.1,3.8,30.01,North,3,6.0,0.0,5,0.00,,,0.00,583,WeatherHawk,2013-05-08 23:00:00,
2013-05-08 16:05:00,80.2,3.1,30.00,NE,34,9.0,-999.0,5,0.00,,,0.00,579,WeatherHawk,2013-05-08 23:05:00,
2013-05-08 16:10:00,80.0,3.0,29.99,NNE,27,5.0,0.0,5,0.00,,,0.00,569,WeatherHawk,2013-05-08 23:10:00,
2013-05-08 16:15:00,81.6,4.1,29.99,NNE,33,9.0,0.0,5,0.00,,,0.00,555,WeatherHawk,2013-05-08 23:15:00,
2013-05-08 16:20:00,82.0,4.4,29.98,NNE,21,8.0,-999.0,5,0.00,,,0.00,538,WeatherHawk,2013-05-08 23:20:00,
2013-05-08 16:25:00,80.7,3.5,29.99,NE,39,8.0,0.0,5,0.00,,,0.00,529,WeatherHawk,2013-05-08 23:25:00,
2013-05-08 16:30:00,82.4,4.7,29.98,NE,39,6.0,0.0,5,0.00,,,0.00,516,WeatherHawk,2013-05-08 23:30:00,
2013-05-08 16:35:00,80.5,3.4,29.99,NNW,339,17.0,0.0,5,0.00,,,0.00,508,WeatherHawk,2013-05-08 23:35:00,
2013-05-08 16:40:00,80.2,3.2,29.98,NNW,327,6.0,0.0,5,0.00,,,0.00,515,WeatherHawk,2013-05-08 23:40:00,
2013-05-08 16:45:00,82.5,4.8,30.00,NW,320,10.0,0.0,5,0.00,,,0.00,528,WeatherHawk,2013-05-08 23:45:00,
2013-05-08 16:50:00,83.0,5.1,30.00,NW,315,14.0,0.0,5,0.00,,,0.00,537,WeatherHawk,2013-05-08 23:50:00,
2013-05-08 16:55:00,80.6,-1.3,29.99,North,3,17.0,0.0,4,0.00,,,0.00,518,WeatherHawk,2013-05-08 23:55:00,
2013-05-08 17:00:00,80.6,-1.3,30.00,NNW,328,15.0,0.0,4,0.00,,,0.00,498,WeatherHawk,2013-05-09 00:00:00,
2013-05-08 17:05:00,80.3,-1.5,29.99,NW,324,17.0,0.0,4,0.00,,,0.00,147,WeatherHawk,2013-05-09 00:05:00,
2013-05-08 17:10:00,78.9,-2.4,29.99,NNW,328,15.0,0.0,4,0.00,,,0.00,125,WeatherHawk,2013-05-09 00:10:00,
2013-05-08 17:15:00,79.1,-2.3,30.00,NNW,327,17.0,0.0,4,0.00,,,0.00,166,WeatherHawk,2013-05-09 00:15:00,
2013-05-08 17:20:00,80.6,10.8,30.01,NNW,330,16.0,0.0,7,0.00,,,0.00,447,WeatherHawk,2013-05-09 00:20:00,
2013-05-08 17:25:00,80.4,-1.4,30.01,NW,316,20.0,0.0,4,0.00,,,0.00,414,WeatherHawk,2013-05-09 00:25:00,
2013-05-08 17:30:00,79.5,-2.0,30.01,NNW,340,12.0,0.0,4,0.00,,,0.00,102,WeatherHawk,2013-05-09 00:30:00,
2013-05-08 17:35:00,78.3,9.2,30.01,NNE,14,12.0,0.0,7,0.00,,,0.00,74,WeatherHawk,2013-05-09 00:35:00,
2013-05-08 17:40:00,78.1,9.0,30.02,North,4,12.0,0.0,7,0.00,,,0.00,64,WeatherHawk,2013-05-09 00:40:00,
2013-05-08 17:45:00,78.5,9.3,30.02,NNE,21,11.0,-999.0,7,0.00,,,0.00,73,WeatherHawk,2013-05-09 00:45:00,
2013-05-08 17:50:00,78.5,9.3,30.02,North,2,12.0,0.0,7,0.00,,,0.00,50,WeatherHawk,2013-05-09 00:50:00,
2013-05-08 17:55:00,78.2,9.1,30.02,NNW,328,18.0,0.0,7,0.00,,,0.00,49,WeatherHawk,2013-05-09 00:55:00,
2013-05-08 18:00:00,77.7,8.7,30.02,NNW,344,12.0,0.0,7,0.00,,,0.00,53,WeatherHawk,2013-05-09 01:00:00,
2013-05-08 18:05:00,77.7,8.7,30.02,NNW,327,11.0,-999.0,7,0.00,,,0.00,66,WeatherHawk,2013-05-09 01:05:00,
2013-05-08 18:10:00,78.0,9.0,30.02,North,1,13.0,0.0,7,0.00,,,0.00,147,WeatherHawk,2013-05-09 01:10:00,
2013-05-08 18:15:00,79.1,-2.4,30.02,NNW,330,9.0,0.0,4,0.00,,,0.00,306,WeatherHawk,2013-05-09 01:15:00,
2013-05-08 18:20:00,79.2,-2.3,30.02,NNW,346,10.0,0.0,4,0.00,,,0.00,256,WeatherHawk,2013-05-09 01:20:00,
2013-05-08 18:25:00,80.4,3.3,30.03,ESE,121,0.0,0.0,5,0.00,,,0.00,300,WeatherHawk,2013-05-09 01:25:00,
2013-05-08 18:30:00,75.8,4.0,30.05,ESE,108,4.0,0.0,6,0.00,,,0.00,245,WeatherHawk,2013-05-09 01:30:00,
2013-05-08 18:35:00,74.1,11.7,30.04,North,9,6.0,0.0,9,0.00,,,0.00,152,WeatherHawk,2013-05-09 01:35:00,
2013-05-08 18:40:00,73.0,5.3,30.04,SSE,150,9.0,0.0,7,0.00,,,0.00,89,WeatherHawk,2013-05-09 01:40:00,
2013-05-08 18:45:00,72.3,10.3,30.04,SE,126,12.0,0.0,9,0.00,,,0.00,73,WeatherHawk,2013-05-09 01:45:00,
2013-05-08 18:50:00,72.8,8.1,30.05,SSE,168,6.0,0.0,8,0.00,,,0.00,79,WeatherHawk,2013-05-09 01:50:00,
2013-05-08 18:55:00,72.6,7.9,30.05,ENE,58,3.0,0.0,8,0.00,,,0.00,83,WeatherHawk,2013-05-09 01:55:00,
2013-05-08 19:00:00,72.5,7.9,30.05,North,3,4.0,0.0,8,0.00,,,0.00,87,WeatherHawk,2013-05-09 02:00:00,
2013-05-08 19:06:00,73.2,5.5,30.05,South,191,4.0,0.0,7,0.00,,,0.00,81,WeatherHawk,2013-05-09 02:06:00,
2013-05-08 19:11:00,73.0,10.9,30.06,SE,132,1.0,0.0,9,0.00,,,0.00,68,WeatherHawk,2013-05-09 02:11:00,
2013-05-08 19:16:00,72.6,8.0,30.06,NE,48,6.0,0.0,8,0.00,,,0.00,57,WeatherHawk,2013-05-09 02:16:00,
2013-05-08 19:21:00,72.2,10.3,30.06,NE,35,1.0,0.0,9,0.00,,,0.00,53,WeatherHawk,2013-05-09 02:21:00,
2013-05-08 19:26:00,72.4,12.7,30.06,ESE,103,0.0,0.0,10,0.00,,,0.00,42,WeatherHawk,2013-05-09 02:26:00,
2013-05-08 19:31:00,71.9,10.0,30.06,WNW,301,0.0,0.0,9,0.00,,,0.00,36,WeatherHawk,2013-05-09 02:31:00,
2013-05-08 19:36:00,71.5,16.2,30.07,WSW,254,0.0,0.0,12,0.00,,,0.00,29,WeatherHawk,2013-05-09 02:36:00,
2013-05-08 19:41:00,71.3,14.1,30.06,WSW,248,0.0,0.0,11,0.00,,,0.00,30,WeatherHawk,2013-05-09 02:41:00,
2013-05-08 19:46:00,71.5,14.2,30.06,NNE,16,2.0,0.0,11,0.00,,,0.00,35,WeatherHawk,2013-05-09 02:46:00,
2013-05-08 19:51:00,71.9,14.5,30.06,ESE,112,0.0,0.0,11,0.00,,,0.00,56,WeatherHawk,2013-05-09 02:51:00,
2013-05-08 19:57:00,71.7,14.4,30.07,SW,231,0.0,0.0,11,0.00,,,0.00,39,WeatherHawk,2013-05-09 02:57:00,
2013-05-08 20:02:00,71.6,16.3,30.07,WSW,243,3.0,0.0,12,0.00,,,0.00,24,WeatherHawk,2013-05-09 03:02:00,
2013-05-08 20:07:00,71.2,14.0,30.07,WSW,249,5.0,0.0,11,0.00,,,0.00,10,WeatherHawk,2013-05-09 03:07:00,
2013-05-08 20:13:00,70.8,13.7,30.07,WSW,252,4.0,0.0,11,0.00,,,0.00,7,WeatherHawk,2013-05-09 03:13:00,
2013-05-08 20:19:00,71.1,11.7,30.07,West,261,2.0,0.0,10,0.00,,,0.00,5,WeatherHawk,2013-05-09 03:19:00,
2013-05-08 20:24:00,69.9,15.0,30.07,SW,233,0.0,0.0,12,0.00,,,0.00,2,WeatherHawk,2013-05-09 03:24:00,
2013-05-08 20:29:00,70.3,18.8,30.08,WSW,253,1.0,0.0,14,0.00,,,0.00,0,WeatherHawk,2013-05-09 03:29:00,
2013-05-08 20:34:00,70.0,16.9,30.07,SW,224,0.0,0.0,13,0.00,,,0.00,1,WeatherHawk,2013-05-09 03:34:00,
2013-05-08 20:39:00,69.8,14.9,30.07,SW,235,3.0,0.0,12,0.00,,,0.00,0,WeatherHawk,2013-05-09 03:39:00,
2013-05-08 20:44:00,69.7,16.6,30.08,WNW,297,5.0,0.0,13,0.00,,,0.00,0,WeatherHawk,2013-05-09 03:44:00,
2013-05-08 20:49:00,70.3,18.9,30.08,West,271,9.0,0.0,14,0.00,,,0.00,0,WeatherHawk,2013-05-09 03:49:00,
2013-05-08 20:54:00,69.7,20.0,30.07,SSW,193,1.0,0.0,15,0.00,,,0.00,0,WeatherHawk,2013-05-09 03:54:00,
2013-05-08 20:59:00,69.7,18.4,30.07,WNW,289,2.0,0.0,14,0.00,,,0.00,0,WeatherHawk,2013-05-09 03:59:00,
2013-05-08 21:01:00,69.7,20.0,30.08,SW,224,5.0,0.0,15,0.00,,,0.00,0,WeatherHawk,2013-05-09 04:01:00,
2013-05-08 21:02:00,69.0,20.9,30.08,SW,216,2.0,0.0,16,0.00,,,0.00,0,WeatherHawk,2013-05-09 04:02:00,
2013-05-08 21:03:00,69.4,19.7,30.08,WSW,238,2.0,0.0,15,0.00,,,0.00,0,WeatherHawk,2013-05-09 04:03:00,
2013-05-08 21:09:00,69.2,19.6,30.08,West,277,0.0,0.0,15,0.00,,,0.00,0,WeatherHawk,2013-05-09 04:09:00,
2013-05-08 21:14:00,68.9,20.8,30.09,WSW,247,1.0,0.0,16,0.00,,,0.00,0,WeatherHawk,2013-05-09 04:14:00,
2013-05-08 21:19:00,68.7,23.5,30.09,SW,232,2.0,0.0,18,0.00,,,0.00,0,WeatherHawk,2013-05-09 04:19:00,
2013-05-08 21:24:00,68.4,25.7,30.09,SSW,197,5.0,0.0,20,0.00,,,0.00,0,WeatherHawk,2013-05-09 04:24:00,
2013-05-08 21:29:00,68.3,25.7,30.09,SSW,201,5.0,0.0,20,0.00,,,0.00,0,WeatherHawk,2013-05-09 04:29:00,
2013-05-08 21:34:00,68.3,26.8,30.10,SSW,197,3.0,0.0,21,0.00,,,0.00,1,WeatherHawk,2013-05-09 04:34:00,
2013-05-08 21:39:00,68.2,26.7,30.10,SW,234,2.0,0.0,21,0.00,,,0.00,0,WeatherHawk,2013-05-09 04:39:00,
2013-05-08 21:44:00,67.7,27.5,30.10,SSW,195,3.0,0.0,22,0.00,,,0.00,0,WeatherHawk,2013-05-09 04:44:00,
2013-05-08 21:49:00,67.7,28.6,30.11,SW,229,4.0,0.0,23,0.00,,,0.00,0,WeatherHawk,2013-05-09 04:49:00,
2013-05-08 21:55:00,67.5,29.4,30.11,SSW,206,3.0,0.0,24,0.00,,,0.00,0,WeatherHawk,2013-05-09 04:55:00,
2013-05-08 22:00:00,67.9,30.8,30.10,South,185,6.0,0.0,25,0.00,,,0.00,0,WeatherHawk,2013-05-09 05:00:00,
2013-05-08 22:05:00,67.1,30.1,30.10,South,180,4.0,0.0,25,0.00,,,0.00,0,WeatherHawk,2013-05-09 05:05:00,
2013-05-08 22:10:00,67.4,29.3,30.11,SSE,163,1.0,0.0,24,0.00,,,0.00,0,WeatherHawk,2013-05-09 05:10:00,
2013-05-08 22:15:00,67.5,30.4,30.10,SSW,204,3.0,0.0,25,0.00,,,0.00,0,WeatherHawk,2013-05-09 05:15:00,
2013-05-08 22:20:00,66.4,30.5,30.10,SW,234,1.0,0.0,26,0.00,,,0.00,0,WeatherHawk,2013-05-09 05:20:00,
2013-05-08 22:25:00,66.8,30.8,30.11,WNW,294,0.0,0.0,26,0.00,,,0.00,0,WeatherHawk,2013-05-09 05:25:00,
2013-05-08 22:30:00,66.0,31.1,30.11,NNE,18,5.0,0.0,27,0.00,,,0.00,0,WeatherHawk,2013-05-09 05:30:00,
2013-05-08 22:35:00,66.8,32.7,30.11,NE,55,0.0,0.0,28,0.00,,,0.00,0,WeatherHawk,2013-05-09 05:35:00,
2013-05-08 22:41:00,65.5,31.6,30.11,ENE,65,2.0,0.0,28,0.00,,,0.00,0,WeatherHawk,2013-05-09 05:41:00,
2013-05-08 22:46:00,66.2,32.1,30.12,NE,48,1.0,0.0,28,0.00,,,0.00,0,WeatherHawk,2013-05-09 05:46:00,
2013-05-08 22:51:00,65.5,31.5,30.12,NE,51,0.0,0.0,28,0.00,,,0.00,0,WeatherHawk,2013-05-09 05:51:00,
2013-05-08 22:56:00,65.3,33.1,30.13,ENE,61,0.0,0.0,30,0.00,,,0.00,0,WeatherHawk,2013-05-09 05:56:00,
2013-05-08 23:01:00,64.1,32.0,30.12,SSE,160,0.0,0.0,30,0.00,,,0.00,0,WeatherHawk,2013-05-09 06:01:00,
2013-05-08 23:06:00,64.9,33.5,30.12,ENE,63,4.0,0.0,31,0.00,,,0.00,0,WeatherHawk,2013-05-09 06:06:00,
2013-05-08 23:11:00,64.2,33.7,30.12,ESE,119,5.0,0.0,32,0.00,,,0.00,0,WeatherHawk,2013-05-09 06:11:00,
2013-05-08 23:16:00,65.0,33.7,30.13,SE,126,2.0,0.0,31,0.00,,,0.00,0,WeatherHawk,2013-05-09 06:16:00,
2013-05-08 23:21:00,65.0,33.6,30.12,SE,132,3.0,0.0,31,0.00,,,0.00,0,WeatherHawk,2013-05-09 06:21:00,
2013-05-08 23:26:00,64.8,30.0,30.12,ESE,103,5.0,0.0,27,0.00,,,0.00,0,WeatherHawk,2013-05-09 06:26:00,
2013-05-08 23:31:00,64.2,26.7,30.12,East,97,5.0,0.0,24,0.00,,,0.00,0,WeatherHawk,2013-05-09 06:31:00,
2013-05-08 23:36:00,64.5,24.8,30.13,East,98,6.0,0.0,22,0.00,,,0.00,0,WeatherHawk,2013-05-09 06:36:00,
2013-05-08 23:42:00,63.6,24.1,30.12,East,97,5.0,0.0,22,0.00,,,0.00,0,WeatherHawk,2013-05-09 06:42:00,
2013-05-08 23:47:00,63.2,24.8,30.13,East,95,4.0,0.0,23,0.00,,,0.00,0,WeatherHawk,2013-05-09 06:47:00,
2013-05-08 23:52:00,63.8,24.2,30.12,ENE,77,7.0,0.0,22,0.00,,,0.00,1,WeatherHawk,2013-05-09 06:52:00,
2013-05-08 23:57:00,63.6,23.0,30.12,East,83,6.0,0.0,21,0.00,,,0.00,0,WeatherHawk,2013-05-09 06:57:00,